Location: Milton Keynes
(52.0316°N, 0.7531°W)
Time: 11:26:32
(UTC+00:00)

N. Korean satellite - Pass Details

Date: 24 January 2019
Orbit: 456 x 510 km, 97.2° (Epoch: 23 February)

Event Time Altitude Azimuth Distance (km) Brightness Sun altitude
Rises 18:34:44 0° 212° (SSW) 2,595 10.9 -17.9°
Reaches altitude 10° 18:37:38 10° 238° (WSW) 1,725 10.3 -18.4°
Maximum altitude 18:39:42 14° 272° (W) 1,481 10.1 -18.7°
Drops below altitude 10° 18:41:48 10° 306° (NW) 1,741 10.0 -19.0°
Sets 18:44:45 0° 331° (NNW) 2,636 10.6 -19.5°
